BM3FFG-1 Weather Reports


time (UTC)temp
F
wind
direction
speed
knots
gust
knots
rain 1hr
in
rain 24hr
in
rain mn
in
humidity
%
barometer
mb
20260509074944 85 0.0 0.0 0.00 0.00 0.00 61 964.5
20260509072943 86 0.0 0.0 0.00 0.00 0.00 61 964.6
20260509070943 86 0.0 0.0 0.00 0.00 0.00 61 964.6
20260509064943 86 0.0 0.0 0.00 0.00 0.00 61 964.7
20260509062943 86 0.0 0.0 0.00 0.00 0.00 62 964.8
20260509060943 85 0.0 0.0 0.00 0.00 0.00 62 964.8
20260509054943 85 0.0 0.0 0.00 0.00 0.00 61 965.0
20260509052943 85 0.0 0.0 0.00 0.00 0.00 60 965.0
20260509050943 85 0.0 0.0 0.00 0.00 0.00 59 965.1
20260509044943 85 0.0 0.0 0.00 0.00 0.00 60 965.2
20260509042943 85 0.0 0.0 0.00 0.00 0.00 62 965.3
20260509040943 85 0.0 0.0 0.00 0.00 0.00 63 965.6
20260509034943 85 0.0 0.0 0.00 0.00 0.00 63 965.7
20260509032943 86 0.0 0.0 0.00 0.00 0.00 62 965.8
20260509030943 85 0.0 0.0 0.00 0.00 0.00 63 966.0
20260509024943 84 0.0 0.0 0.00 0.00 0.00 64 966.3
20260509022943 84 0.0 0.0 0.00 0.00 0.00 65 966.5
20260509020943 83 0.0 0.0 0.00 0.00 0.00 68 966.7
20260509014943 83 0.0 0.0 0.00 0.00 0.00 72 966.9
20260509012943 82 0.0 0.0 0.00 0.00 0.00 74 967.2
20260509010942 82 0.0 0.0 0.00 0.00 0.00 74 967.2
20260509004943 81 0.0 0.0 0.00 0.00 0.00 75 967.2
20260509002943 81 0.0 0.0 0.00 0.00 0.00 76 967.0
20260509000943 81 0.0 0.0 0.00 0.00 0.00 76 966.9
20260508234943 80 0.0 0.0 0.00 0.00 0.00 76 966.9
20260508232942 80 0.0 0.0 0.00 0.00 0.00 77 966.8
20260508230943 80 0.0 0.0 0.00 0.00 0.00 77 966.6
20260508224942 80 0.0 0.0 0.00 0.00 0.00 77 966.5
20260508222943 80 0.0 0.0 0.00 0.00 0.00 77 966.4
20260508220942 80 0.0 0.0 0.00 0.00 0.00 76 966.2
20260508214943 80 0.0 0.0 0.00 0.00 0.00 76 966.1
20260508212943 80 0.0 0.0 0.00 0.00 0.00 75 965.8
20260508210943 81 0.0 0.0 0.00 0.00 0.00 75 965.6
20260508204942 81 0.0 0.0 0.00 0.00 0.00 75 965.4
20260508202943 81 0.0 0.0 0.00 0.00 0.00 75 965.2
20260508200943 81 0.0 0.0 0.00 0.00 0.00 74 965.1
20260508194942 81 0.0 0.0 0.00 0.00 0.00 74 965.1
20260508192943 81 0.0 0.0 0.00 0.00 0.00 74 965.2
20260508190943 81 0.0 0.0 0.00 0.00 0.00 74 965.2
20260508184943 81 0.0 0.0 0.00 0.00 0.00 74 965.1
20260508182943 81 0.0 0.0 0.00 0.00 0.00 74 965.5
20260508180943 81 0.0 0.0 0.00 0.00 0.00 73 965.4
20260508174943 82 0.0 0.0 0.00 0.00 0.00 73 965.4
20260508172943 82 0.0 0.0 0.00 0.00 0.00 73 965.5
20260508170943 82 0.0 0.0 0.00 0.00 0.00 73 965.6
20260508164943 82 0.0 0.0 0.00 0.00 0.00 72 965.5
20260508162943 82 0.0 0.0 0.00 0.00 0.00 72 965.8
20260508160942 82 0.0 0.0 0.00 0.00 0.00 72 965.8
20260508154943 82 0.0 0.0 0.00 0.00 0.00 71 966.0
20260508152944 82 0.0 0.0 0.00 0.00 0.00 71 966.2
20260508150943 82 0.0 0.0 0.00 0.00 0.00 71 966.3
20260508144943 83 0.0 0.0 0.00 0.00 0.00 70 966.4
20260508142942 83 0.0 0.0 0.00 0.00 0.00 70 966.3
20260508140943 83 0.0 0.0 0.00 0.00 0.00 69 966.3
20260508134943 83 0.0 0.0 0.00 0.00 0.00 68 966.1
20260508132943 83 0.0 0.0 0.00 0.00 0.00 68 966.0
20260508130943 83 0.0 0.0 0.00 0.00 0.00 67 965.8
20260508124943 83 0.0 0.0 0.00 0.00 0.00 66 965.6
20260508122943 84 0.0 0.0 0.00 0.00 0.00 66 965.4
20260508120942 84 0.0 0.0 0.00 0.00 0.00 64 965.2
20260508114943 84 0.0 0.0 0.00 0.00 0.00 64 965.0
20260508112942 84 0.0 0.0 0.00 0.00 0.00 63 964.8
20260508110942 84 0.0 0.0 0.00 0.00 0.00 63 964.8
20260508104943 84 0.0 0.0 0.00 0.00 0.00 63 964.6
20260508102943 84 0.0 0.0 0.00 0.00 0.00 63 964.3
20260508100943 85 0.0 0.0 0.00 0.00 0.00 64 964.1
20260508094943 85 0.0 0.0 0.00 0.00 0.00 64 963.8
20260508092943 85 0.0 0.0 0.00 0.00 0.00 63 963.6
20260508090943 86 0.0 0.0 0.00 0.00 0.00 63 963.6
20260508084943 86 0.0 0.0 0.00 0.00 0.00 62 963.2
20260508082943 87 0.0 0.0 0.00 0.00 0.00 60 963.2
20260508080943 87 0.0 0.0 0.00 0.00 0.00 58 963.2